OneWeb SL0064

operational
NORAD ID: 45433 Int'l Des: 2020-020 Owner: ONEWEB Country: UK Constellation: oneweb
LEOCIRCULARPOLARONEWEB_TYPE

关于 OneWeb SL0064

正在加载描述...

实时位置

正在加载3D地球...

即将过境

高度历史

Altitude vs Time

uPlot chart will show altitude changes over time

两行轨道根数

1 45433U 20020K 25351.21787973 -.00000469 00000-0 -13586-2 0 9999
2 45433 87.8853 57.3082 0001598 99.8968 260.2340 13.11415198278836
Epoch: Dec 17, 2025 • Age: 8 hours

当前状态

高度 1228.0 km
速度 7.25 km/s
星下点 65.12°N, 142.12°E
发射日期 Mar 21, 2020
运行时间 5.7 years
类型 internet

技术详情

分类 Payload
质量 148.00 kg
干质量 140.00 kg
总质量 148.00 kg
长度 1.30 m
直径 1.00 m
跨度 5.00 m
形状 Trapezoid+2 pan
制造商 ONEWUS
平台类型 ARROW
阶段状态 In Orbit
所有者/国家 ONEWEB/UK

大型星座

Loading constellations...